Location: São Paulo
(23.5507°S, 46.6334°W)
Time: 18:15:42
(UTC-03:00)

Vanguard 2 - Visible Passes

Search period start: 17 February 2026 00:00
Search period end: 27 February 2026 00:00
Orbit: 553 x 2897 km, 32.9° (Epoch: 17 February)

Date Brightness Start Highest point End Pass type
(mag) Time Alt. Az. Time Alt. Az. Time Alt. Az.
17 Feb 11.2 00:37:52 10° WSW 00:43:23 24° WSW 00:43:23 24° WSW visible
17 Feb 10.5 20:23:48 10° WSW 20:40:34 63° S 20:52:12 25° ESE visible
17 Feb 10.0 22:36:28 10° WSW 22:53:05 79° SW 22:53:05 79° SW visible
18 Feb 11.4 00:50:21 10° WSW 00:53:57 18° WSW 00:53:57 18° WSW visible
18 Feb 10.4 20:36:09 10° WSW 20:53:06 65° S 21:02:48 33° E visible
18 Feb 10.2 22:48:39 10° WSW 23:03:41 69° WSW 23:03:41 69° WSW visible
19 Feb 11.6 01:03:03 10° WSW 01:04:35 13° W 01:04:35 13° W visible
19 Feb 10.7 18:36:51 10° W 18:50:59 61° S 19:08:40 10° ESE visible
19 Feb 10.3 20:48:26 10° WSW 21:05:33 70° SSE 21:13:26 41° E visible
19 Feb 10.4 23:00:51 10° WSW 23:14:19 58° W 23:14:19 58° W visible
20 Feb 10.6 18:49:14 10° WSW 19:03:33 61° S 19:21:11 10° E visible
20 Feb 10.2 21:00:39 10° WSW 21:17:56 76° SSE 21:24:06 50° E visible
20 Feb 10.6 23:13:08 10° WSW 23:25:00 47° W 23:25:00 47° W visible
21 Feb 10.6 19:01:35 10° WSW 19:16:05 61° S 19:33:44 10° E visible
21 Feb 10.1 21:12:49 10° WSW 21:30:12 83° SSE 21:34:49 60° ENE visible
21 Feb 10.8 23:25:30 10° WSW 23:35:42 38° W 23:35:42 38° W visible
22 Feb 10.5 19:13:51 10° WSW 19:28:35 64° S 19:44:40 14° E visible
22 Feb 10.0 21:24:57 10° WSW 21:42:21 88° NNW 21:45:34 69° NE visible
22 Feb 11.1 23:38:04 10° WSW 23:46:28 30° W 23:46:28 30° W visible
23 Feb 10.4 19:26:04 10° WSW 19:41:01 68° SSE 19:55:28 19° E visible
23 Feb 10.0 21:37:07 10° WSW 21:54:24 78° NNW 21:56:22 72° NNE visible
23 Feb 11.3 23:50:54 10° W 23:57:17 23° W 23:57:17 23° W visible
24 Feb 10.3 19:38:14 10° WSW 19:53:23 74° SSE 20:06:19 24° E visible
24 Feb 10.2 21:49:18 10° WSW 22:06:22 67° NNW 22:07:15 67° NNW visible
25 Feb 11.6 00:04:11 10° W 00:08:09 17° W 00:08:09 17° W visible
25 Feb 10.3 19:50:21 10° WSW 20:05:38 81° SSE 20:17:15 29° ENE visible
25 Feb 10.3 22:01:36 10° WSW 22:18:10 57° NW 22:18:10 57° NW visible
26 Feb 11.8 00:18:07 10° W 00:19:05 11° W 00:19:05 11° W visible
26 Feb 10.2 20:02:27 10° WSW 20:17:48 90° SSE 20:28:14 34° ENE visible
26 Feb 10.6 22:14:03 10° WSW 22:29:10 47° NW 22:29:10 47° NW visible
